Hourly Weather Godziszewo

Today, 20 January, Wednesday

Time Temperature Precipitation Wind Pressure Humidity
00:00 0°C° 0.2 mm 4 mps 747 mmHg 98%
01:00 0°C° 0 mm 4 mps 747 mmHg 97%
02:00 0°C° 0.4 mm 4 mps 747 mmHg 98%
03:00 +1°C° 0.4 mm 4 mps 747 mmHg 98%
04:00 +3°C° 0.4 mm 4 mps 747 mmHg 98%
05:00 +2°C° 0.1 mm 5 mps 747 mmHg 97%
06:00 +1°C° 0.1 mm 5 mps 747 mmHg 96%
07:00 +1°C° 0.1 mm 5 mps 747 mmHg 95%
08:00 +1°C° 0 mm 6 mps 747 mmHg 95%
09:00 +1°C° 0 mm 6 mps 747 mmHg 95%
10:00 -1°C° 0 mm 6 mps 747 mmHg 94%
11:00 +1°C° 0.1 mm 6 mps 747 mmHg 92%
12:00 +1°C° 0.1 mm 6 mps 747 mmHg 89%
13:00 +1°C° 0.1 mm 6 mps 747 mmHg 87%
14:00 +1°C° 0 mm 6 mps 747 mmHg 86%
15:00 +1°C° 0 mm 6 mps 747 mmHg 84%
16:00 +2°C° 0 mm 6 mps 746 mmHg 83%
17:00 +2°C° 0 mm 6 mps 747 mmHg 83%
18:00 +1°C° 0 mm 6 mps 747 mmHg 83%
19:00 +1°C° 0 mm 6 mps 747 mmHg 83%
20:00 +1°C° 0 mm 5 mps 746 mmHg 85%
21:00 +1°C° 0 mm 5 mps 746 mmHg 87%
22:00 +1°C° 0 mm 5 mps 746 mmHg 88%
23:00 +1°C° 0 mm 5 mps 746 mmHg 88%

Tomorrow, 21 January, Thursday

Time Temperature Precipitation Wind Pressure Humidity
00:00 +1°C° 0 mm 5 mps 746 mmHg 87%
01:00 +1°C° 0 mm 5 mps 746 mmHg 86%
02:00 +1°C° 0 mm 6 mps 746 mmHg 85%
03:00 +1°C° 0 mm 6 mps 745 mmHg 83%
04:00 +1°C° 0 mm 6 mps 745 mmHg 81%
05:00 +1°C° 0 mm 6 mps 745 mmHg 80%
06:00 +1°C° 0 mm 6 mps 745 mmHg 79%
07:00 +2°C° 0 mm 6 mps 744 mmHg 78%
08:00 +2°C° 0 mm 7 mps 744 mmHg 76%
09:00 +2°C° 0 mm 7 mps 744 mmHg 75%
10:00 +1°C° 0 mm 8 mps 744 mmHg 73%
11:00 +2°C° 0 mm 8 mps 744 mmHg 72%
12:00 +4°C° 0 mm 8 mps 744 mmHg 70%
13:00 +5°C° 0 mm 8 mps 744 mmHg 69%
14:00 +5°C° 0 mm 7 mps 743 mmHg 71%
15:00 +4°C° 0 mm 7 mps 743 mmHg 74%
16:00 +4°C° 0 mm 7 mps 743 mmHg 76%
17:00 +4°C° 0 mm 7 mps 743 mmHg 79%
18:00 +3°C° 0 mm 6 mps 743 mmHg 81%
19:00 +3°C° 0 mm 6 mps 743 mmHg 84%
20:00 +3°C° 0 mm 6 mps 743 mmHg 85%
21:00 +3°C° 0 mm 6 mps 743 mmHg 85%
22:00 +3°C° 0 mm 6 mps 743 mmHg 86%
23:00 +3°C° 0 mm 7 mps 742 mmHg 86%

Day after tomorrow, 22 January, Friday

Time Temperature Precipitation Wind Pressure Humidity
00:00 +3°C° 0 mm 7 mps 742 mmHg 86%
01:00 +3°C° 0 mm 7 mps 742 mmHg 85%
02:00 +4°C° 0.3 mm 8 mps 741 mmHg 86%
03:00 +3°C° 0.3 mm 9 mps 740 mmHg 86%
04:00 +5°C° 0.3 mm 9 mps 740 mmHg 87%
05:00 +3°C° 0.1 mm 9 mps 739 mmHg 83%
06:00 +3°C° 0.1 mm 9 mps 739 mmHg 80%
07:00 +3°C° 0.1 mm 9 mps 738 mmHg 76%
08:00 +3°C° 0 mm 9 mps 738 mmHg 75%
09:00 +3°C° 0 mm 9 mps 738 mmHg 74%
10:00 +3°C° 0 mm 9 mps 738 mmHg 73%
11:00 +4°C° 0 mm 7 mps 739 mmHg 75%
12:00 +5°C° 0 mm 5 mps 739 mmHg 77%
13:00 +5°C° 0 mm 3 mps 740 mmHg 79%
14:00 +4°C° 0 mm 3 mps 740 mmHg 81%
15:00 +5°C° 0 mm 2 mps 740 mmHg 82%
16:00 +4°C° 0 mm 2 mps 740 mmHg 84%
17:00 +4°C° 0 mm 2 mps 740 mmHg 85%
18:00 +3°C° 0 mm 2 mps 740 mmHg 87%
19:00 +2°C° 0 mm 3 mps 741 mmHg 88%
20:00 +3°C° 0 mm 2 mps 740 mmHg 88%
21:00 +3°C° 0 mm 2 mps 740 mmHg 89%
22:00 +3°C° 0 mm 2 mps 740 mmHg 89%
23:00 +3°C° 0.1 mm 2 mps 741 mmHg 89%

23 January, Saturday

Time Temperature Precipitation Wind Pressure Humidity
00:00 +3°C° 0.1 mm 2 mps 741 mmHg 90%
01:00 +3°C° 0.1 mm 2 mps 742 mmHg 91%
02:00 +2°C° 0 mm 2 mps 741 mmHg 91%
03:00 +2°C° 0 mm 2 mps 741 mmHg 92%
04:00 +2°C° 0 mm 2 mps 741 mmHg 92%
05:00 +2°C° 0 mm 1 mps 742 mmHg 92%
06:00 +2°C° 0 mm 1 mps 742 mmHg 92%
07:00 +2°C° 0 mm 1 mps 742 mmHg 92%
08:00 +2°C° 0 mm 1 mps 742 mmHg 90%
09:00 +3°C° 0 mm 1 mps 742 mmHg 88%
10:00 +3°C° 0 mm 1 mps 742 mmHg 86%
11:00 +2°C° 0 mm 2 mps 742 mmHg 86%
12:00 +2°C° 0 mm 3 mps 741 mmHg 86%
13:00 +2°C° 0 mm 3 mps 741 mmHg 85%
14:00 +1°C° 0.1 mm 4 mps 741 mmHg 88%
15:00 0°C° 0.1 mm 4 mps 741 mmHg 90%
16:00 0°C° 0.1 mm 4 mps 740 mmHg 92%
17:00 0°C° 0.3 mm 4 mps 740 mmHg 92%
18:00 0°C° 0.3 mm 4 mps 741 mmHg 93%
19:00 0°C° 0.3 mm 4 mps 741 mmHg 93%
20:00 0°C° 0.1 mm 4 mps 741 mmHg 93%
21:00 0°C° 0.1 mm 4 mps 741 mmHg 92%
22:00 +1°C° 0.1 mm 3 mps 741 mmHg 92%
23:00 +1°C° 0 mm 3 mps 741 mmHg 92%

24 January, Sunday

Time Temperature Precipitation Wind Pressure Humidity
00:00 +1°C° 0 mm 3 mps 742 mmHg 92%
01:00 0°C° 0 mm 3 mps 742 mmHg 93%
02:00 0°C° 0 mm 3 mps 742 mmHg 94%
03:00 0°C° 0 mm 3 mps 743 mmHg 95%
04:00 +1°C° 0 mm 2 mps 743 mmHg 95%
05:00 -1°C° 0 mm 2 mps 743 mmHg 96%
06:00 -1°C° 0 mm 2 mps 743 mmHg 96%
07:00 -1°C° 0 mm 2 mps 744 mmHg 96%
08:00 -1°C° 0 mm 2 mps 744 mmHg 95%
09:00 +2°C° 0 mm 1 mps 744 mmHg 94%
10:00 +2°C° 0 mm 1 mps 744 mmHg 93%
11:00 +3°C° 0 mm 1 mps 744 mmHg 91%
12:00 +3°C° 0 mm 1 mps 745 mmHg 88%
13:00 +4°C° 0 mm 1 mps 745 mmHg 86%
14:00 +3°C° 0 mm 1 mps 745 mmHg 87%
15:00 +2°C° 0 mm 0 mps 745 mmHg 89%
16:00 +1°C° 0 mm 0 mps 745 mmHg 91%
17:00 +1°C° 0 mm 0 mps 745 mmHg 91%
18:00 +2°C° 0 mm 1 mps 745 mmHg 91%
19:00 +2°C° 0 mm 1 mps 745 mmHg 92%
20:00 +1°C° 0 mm 1 mps 745 mmHg 92%
21:00 +1°C° 0 mm 1 mps 745 mmHg 93%
22:00 +1°C° 0 mm 1 mps 745 mmHg 93%
23:00 +1°C° 0 mm 1 mps 745 mmHg 93%

25 January, Monday

Time Temperature Precipitation Wind Pressure Humidity
00:00 +1°C° 0 mm 1 mps 745 mmHg 93%
01:00 +1°C° 0 mm 1 mps 745 mmHg 93%
02:00 +1°C° 0 mm 1 mps 745 mmHg 92%
03:00 +1°C° 0 mm 1 mps 745 mmHg 92%
04:00 +1°C° 0 mm 1 mps 745 mmHg 92%
05:00 +1°C° 0 mm 1 mps 745 mmHg 91%
06:00 +1°C° 0 mm 1 mps 746 mmHg 91%
07:00 +1°C° 0 mm 1 mps 746 mmHg 91%
08:00 +1°C° 0 mm 1 mps 746 mmHg 89%
09:00 +2°C° 0 mm 1 mps 747 mmHg 87%
10:00 +2°C° 0 mm 1 mps 747 mmHg 85%
11:00 +3°C° 0 mm 1 mps 747 mmHg 81%
12:00 +3°C° 0 mm 1 mps 748 mmHg 77%
13:00 +4°C° 0 mm 1 mps 748 mmHg 74%
14:00 +2°C° 0 mm 2 mps 749 mmHg 76%
15:00 +2°C° 0 mm 2 mps 749 mmHg 79%
16:00 +1°C° 0 mm 2 mps 749 mmHg 81%
17:00 +1°C° 0 mm 2 mps 750 mmHg 82%
18:00 +1°C° 0 mm 2 mps 750 mmHg 83%
19:00 -1°C° 0 mm 2 mps 750 mmHg 84%
20:00 -1°C° 0 mm 2 mps 751 mmHg 84%
21:00 -1°C° 0 mm 2 mps 751 mmHg 83%
22:00 -1°C° 0 mm 2 mps 752 mmHg 83%
23:00 -1°C° 0 mm 2 mps 752 mmHg 83%
Show more